TimeCST,TemperatureF,Dew PointF,Humidity,Sea Level PressureIn,VisibilityMPH,Wind Direction,Wind SpeedMPH,Gust SpeedMPH,PrecipitationIn,Events,Conditions,WindDirDegrees,DateUTC
12:10 AM,12.2,8.6,85,30.01,2.5,North,19.6,28.8,0.00,Snow,Light Snow,360,2012-01-17 06:10:00
12:13 AM,12.2,8.6,85,30.01,1.8,North,24.2,29.9,N/A,Snow,Light Snow,360,2012-01-17 06:13:00
12:25 AM,12.2,6.8,79,30.02,2.0,North,20.7,26.5,0.00,Snow,Light Snow,360,2012-01-17 06:25:00
12:56 AM,12.0,7.0,80,30.11,2.5,North,24.2,33.4,0.01,Snow,Light Snow,360,2012-01-17 06:56:00
1:24 AM,10.4,6.8,85,30.04,3.0,North,18.4,23.0,0.00,Snow,Light Snow,10,2012-01-17 07:24:00
1:41 AM,10.4,6.8,85,30.04,2.5,North,18.4,26.5,0.00,Snow,Light Snow,360,2012-01-17 07:41:00
1:56 AM,10.9,5.0,77,30.13,1.8,North,17.3,25.3,0.00,Snow,Light Snow,360,2012-01-17 07:56:00
2:01 AM,10.4,5.0,79,30.05,2.0,North,20.7,25.3,0.00,Snow,Light Snow,360,2012-01-17 08:01:00
2:10 AM,10.4,5.0,79,30.05,3.0,North,15.0,25.3,0.00,Snow,Light Snow,350,2012-01-17 08:10:00
2:16 AM,10.4,5.0,79,30.06,4.0,North,20.7,31.1,0.00,Snow,Light Snow,360,2012-01-17 08:16:00
2:39 AM,10.4,3.2,73,30.07,2.5,North,23.0,29.9,0.00,Snow,Light Snow,350,2012-01-17 08:39:00
2:47 AM,10.4,3.2,73,30.08,1.8,NNW,18.4,29.9,0.00,Snow,Light Snow,340,2012-01-17 08:47:00
2:56 AM,10.0,3.9,76,30.17,2.0,North,23.0,26.5,0.00,Snow,Light Snow,350,2012-01-17 08:56:00
3:01 AM,8.6,3.2,79,30.08,2.0,North,19.6,27.6,0.00,Snow,Light Snow,350,2012-01-17 09:01:00
3:09 AM,8.6,3.2,79,30.09,1.8,NNW,20.7,26.5,0.00,Snow,Light Snow,340,2012-01-17 09:09:00
3:22 AM,8.6,3.2,79,30.10,2.0,NNW,17.3,27.6,0.00,Snow,Light Snow,340,2012-01-17 09:22:00
3:30 AM,8.6,3.2,79,30.10,3.0,North,17.3,27.6,0.00,Snow,Light Snow,350,2012-01-17 09:30:00
3:56 AM,9.0,3.0,77,30.18,3.0,North,15.0,24.2,0.01,Snow,Light Snow,350,2012-01-17 09:56:00
4:21 AM,8.6,1.4,73,30.10,2.5,North,19.6,27.6,0.00,Snow,Light Snow,350,2012-01-17 10:21:00
4:30 AM,8.6,3.2,79,30.11,3.0,NNW,17.3,26.5,0.00,Snow,Light Snow,340,2012-01-17 10:30:00
4:56 AM,8.1,1.9,76,30.22,9.0,NNW,17.3,26.5,0.00,Snow,Light Snow,340,2012-01-17 10:56:00
5:18 AM,8.6,1.4,73,30.14,2.5,NNW,16.1,25.3,0.00,Snow,Light Snow,340,2012-01-17 11:18:00
5:56 AM,8.1,1.9,76,30.25,2.0,NNW,15.0,21.9,0.01,Snow,Light Snow,340,2012-01-17 11:56:00
6:11 AM,8.6,1.4,73,30.16,2.0,NNW,20.7,25.3,N/A,Snow,Light Snow,340,2012-01-17 12:11:00
6:46 AM,8.6,1.4,73,30.18,1.8,NNW,9.2,-,N/A,Snow,Light Snow,330,2012-01-17 12:46:00
6:56 AM,8.1,1.9,76,30.28,2.0,NNW,13.8,-,0.00,Snow,Light Snow,330,2012-01-17 12:56:00
7:02 AM,8.6,1.4,73,30.19,2.0,NNW,12.7,-,0.00,Snow,Light Snow,340,2012-01-17 13:02:00
7:08 AM,8.6,1.4,73,30.19,5.0,NNW,15.0,-,0.00,Snow,Light Snow,330,2012-01-17 13:08:00
7:56 AM,8.1,-0.0,70,30.31,10.0,NNW,12.7,-,0.01,,Overcast,330,2012-01-17 13:56:00
8:56 AM,6.1,-2.0,69,30.35,10.0,NNW,12.7,-,N/A,,Mostly Cloudy,330,2012-01-17 14:56:00
9:56 AM,7.0,-0.9,70,30.38,10.0,NNW,17.3,-,N/A,,Scattered Clouds,330,2012-01-17 15:56:00
10:03 AM,6.8,-0.4,72,30.28,10.0,NNW,13.8,-,N/A,,Mostly Cloudy,330,2012-01-17 16:03:00
10:09 AM,6.8,-0.4,72,30.28,10.0,NW,15.0,-,N/A,,Mostly Cloudy,320,2012-01-17 16:09:00
10:56 AM,8.6,-0.4,67,30.30,6.0,NNW,10.4,-,N/A,Snow,Light Snow,330,2012-01-17 16:56:00
11:56 AM,10.4,1.4,67,30.29,10.0,NW,12.7,-,N/A,,Scattered Clouds,310,2012-01-17 17:56:00
12:56 PM,10.4,1.4,67,30.27,10.0,NW,11.5,-,N/A,,Partly Cloudy,310,2012-01-17 18:56:00
1:56 PM,10.9,1.0,64,30.34,10.0,NW,13.8,-,N/A,,Partly Cloudy,310,2012-01-17 19:56:00
2:56 PM,10.9,-0.0,61,30.35,10.0,NW,10.4,-,N/A,,Clear,310,2012-01-17 20:56:00
3:56 PM,10.9,-0.0,61,30.37,10.0,WNW,9.2,-,N/A,,Clear,300,2012-01-17 21:56:00
4:56 PM,8.6,-2.2,62,30.28,10.0,West,5.8,-,N/A,,Clear,280,2012-01-17 22:56:00
5:56 PM,3.9,-2.9,73,30.37,10.0,West,3.5,-,N/A,,Clear,280,2012-01-17 23:56:00
6:56 PM,3.2,-4.0,72,30.26,10.0,Calm,Calm,-,N/A,,Clear,0,2012-01-18 00:56:00
7:56 PM,1.0,-5.1,75,30.35,10.0,Calm,Calm,-,N/A,,Clear,0,2012-01-18 01:56:00
8:56 PM,-0.9,-4.0,87,30.34,10.0,Calm,Calm,-,N/A,,Clear,0,2012-01-18 02:56:00
9:56 PM,1.0,-4.0,79,30.32,10.0,South,5.8,-,N/A,,Clear,180,2012-01-18 03:56:00
10:56 PM,3.0,-2.9,76,30.28,10.0,South,5.8,-,N/A,,Clear,170,2012-01-18 04:56:00
11:56 PM,3.9,-2.0,76,30.24,10.0,South,4.6,-,N/A,,Clear,170,2012-01-18 05:56:00